Tracking 34719 objects as of 12-Jul-2026
HD Live streaming from Space Station
objects crossing your sky now

NOAA 16 DEB

Track NOAA 16 DEB now!
10-day predictions


NORAD ID: 41398
Int'l Code: 2000-055KB
Perigee: 757.9 km
Apogee: 781.2 km
Inclination: 98.8 °
Period: 100.1 minutes
Semi major axis: 7140 km
RCS: Unknown
Launch date: September 21, 2000
Source: United States (US)
Launch site: AIR FORCE WESTERN TEST RANGE (AFWTR)

Note: This is SATELLITE DEBRIS
Your satellite tracking list
Your tracking list is empty




NASA's NSSDC Master Catalog

Two Line Element Set (TLE):
1 41398U 00055KB  26190.56837013  .00003038  00000-0  10013-2 0  9997
2 41398  98.8244 314.5784 0016323 151.5922 208.6158 14.38809993537474
Source of the keplerian elements: AFSPC